Weather History for Tamworth Airport, New South Wales

Change the Weather History Date:

Wednesday, January 22, 2014

  Actual Average Record
Temperature  
Mean Temperature 80 °F -  
Max Temperature 93 °F - - ()
Min Temperature 68 °F - - ()
Cooling Degree Days 16    
Growing Degree Days 30 (Base 50)    
Moisture  
Dew Point 59 °F    
Average Humidity 51    
Maximum Humidity 90    
Minimum Humidity 26    
Precipitation  
Precipitation 0.02 in - - ()
Sea Level Pressure  
Sea Level Pressure 29.92 in    
Wind  
Wind Speed 12 mph ()    
Max Wind Speed 29 mph    
Max Gust Speed 37 mph    
Visibility 6.2 miles    
Events      
T = Trace of Precipitation, MM = Missing Value Source: Averaged Metar Reports

Daily Weather History Graph

Daily Weather History Graph

Search for Another Location

Airport:

Trip Planner

Search our weather history database for the weather conditions in past years. The results will help you decide how hot, cold, wet, or windy it might be!

Date:

Astronomy

Jan. 22, 2014 Rise Set
Actual Time 6:07 AM AEDT 8:07 PM AEDT
Civil Twilight 5:39 AM AEDT 8:35 PM AEDT
Nautical Twilight 5:05 AM AEDT 9:09 PM AEDT
Astronomical Twilight 4:28 AM AEDT 9:45 PM AEDT
Moon 11:14 PM AEDT (1/22) 11:20 AM AEDT (1/22)
Length of Visible Light 14h 56m
Length of Day
14h 00m
Waning Gibbous, 72% of the Moon is Illuminated
Jan 22
Waning Gibbous
Jan 24
Last Quarter
Jan 31
New
Feb 7
First Quarter
Feb 15
Full

Hourly Weather History & Observations

Time (AEDT) Temp. Heat Index Dew Point Humidity Pressure Visibility Wind Dir Wind Speed Gust Speed Precip Events Conditions
12:00 AM 71 °F - 66 °F 81%  in - South 5.8 mph - -  
12:00 AM 82.4 °F 83.9 °F 64.4 °F 54% 29.80 in 6.2 mi ESE 10.4 mph - N/A   Unknown
12:30 AM 78.8 °F - 62.6 °F 57% 29.80 in 6.2 mi SSE 8.1 mph - N/A   Unknown
1:00 AM 78.8 °F - 64.4 °F 61% 29.80 in 6.2 mi SSE 9.2 mph - N/A   Unknown
1:30 AM 78.8 °F - 64.4 °F 61% 29.80 in 6.2 mi SSE 10.4 mph - N/A   Unknown
2:00 AM 77.0 °F - 64.4 °F 65% 29.80 in 6.2 mi SSE 12.7 mph - N/A   Unknown
2:30 AM 77.0 °F - 64.4 °F 65% 29.80 in 6.2 mi SSE 10.4 mph - N/A   Unknown
3:00 AM 69 °F - 67 °F 90%  in - WSW 3.5 mph - -  
3:00 AM 77.0 °F - 64.4 °F 65% 29.80 in 6.2 mi SSE 10.4 mph - N/A   Unknown
3:30 AM 77.0 °F - 64.4 °F 65% 29.80 in 6.2 mi SE 10.4 mph - N/A   Unknown
4:00 AM 77.0 °F - 64.4 °F 65% 29.80 in 6.2 mi SE 11.5 mph - N/A   Unknown
4:30 AM 75.2 °F - 62.6 °F 65% 29.83 in 6.2 mi SSE 10.4 mph - N/A   Unknown
5:00 AM 73.4 °F - 62.6 °F 69% 29.83 in 6.2 mi SSE 11.5 mph - N/A   Unknown
5:30 AM 75.2 °F - 62.6 °F 65% 29.86 in 6.2 mi SSE 11.5 mph - N/A   Unknown
6:00 AM 69 °F - 66 °F 87%  in - South 8.1 mph - -  
6:00 AM 77.0 °F - 62.6 °F 61% 29.89 in 6.2 mi SE 13.8 mph - N/A   Unknown
6:30 AM 75.2 °F - 60.8 °F 61% 29.89 in 6.2 mi SE 11.5 mph - N/A   Scattered Clouds
7:00 AM 77.0 °F - 62.6 °F 61% 29.89 in 6.2 mi SE 11.5 mph - N/A   Unknown
7:30 AM 78.8 °F - 60.8 °F 54% 29.92 in 6.2 mi SE 13.8 mph - N/A   Mostly Cloudy
8:00 AM 78.8 °F - 59.0 °F 51% 29.92 in 6.2 mi SE 16.1 mph - N/A   Scattered Clouds
8:30 AM 80.6 °F 81.1 °F 59.0 °F 48% 29.92 in 6.2 mi SE 17.3 mph - N/A   Unknown
9:00 AM 69 °F - 61 °F 68%  in - South 11.5 mph - -  
9:00 AM 84.2 °F 83.8 °F 59.0 °F 42% 29.92 in 6.2 mi ESE 16.1 mph - N/A   Unknown
9:30 AM 84.2 °F 83.0 °F 55.4 °F 37% 29.95 in 6.2 mi ESE 12.7 mph - N/A   Unknown
10:00 AM 86.0 °F 84.5 °F 55.4 °F 35% 29.92 in 6.2 mi ESE 11.5 mph - N/A   Unknown
10:30 AM 86.0 °F 84.2 °F 53.6 °F 33% 29.95 in 6.2 mi ESE 12.7 mph - N/A   Unknown
11:00 AM 87.8 °F 86.1 °F 55.4 °F 33% 29.92 in 6.2 mi ESE 11.5 mph - N/A   Unknown
11:30 AM 89.6 °F 87.7 °F 55.4 °F 31% 29.92 in 6.2 mi East 9.2 mph - N/A   Unknown
12:00 PM 70 °F - 57 °F 54%  in - South 11.5 mph - -  
12:00 PM 91.4 °F 89.4 °F 55.4 °F 29% 29.92 in 6.2 mi SSW 5.8 mph - N/A   Unknown
12:30 PM 91.4 °F 89.4 °F 55.4 °F 29% 29.92 in 6.2 mi East 8.1 mph - N/A   Scattered Clouds
1:00 PM 93.2 °F 90.8 °F 53.6 °F 26% 29.92 in 6.2 mi SE 6.9 mph - N/A   Scattered Clouds
1:28 PM 91.4 °F 89.1 °F 53.6 °F 28% 29.89 in 6.2 mi East 19.6 mph - N/A   Mostly Cloudy
1:30 PM 91.4 °F 89.1 °F 53.6 °F 28% 29.89 in 6.2 mi East 18.4 mph - N/A   Overcast
2:00 PM 93.2 °F 91.3 °F 55.4 °F 28% 29.89 in 6.2 mi SE 18.4 mph - N/A   Scattered Clouds
2:19 PM 89.6 °F 88.1 °F 57.2 °F 33% 29.89 in 6.2 mi SE 23.0 mph 36.8 mph N/A   Unknown
2:30 PM 89.6 °F 88.1 °F 57.2 °F 33% 29.89 in 6.2 mi SE 28.8 mph - N/A   Unknown
3:00 PM 70 °F - 57 °F 54%  in - SSE 11.5 mph - -  
3:00 PM 86.0 °F 84.5 °F 55.4 °F 35% 29.92 in 6.2 mi SE 25.3 mph - N/A   Scattered Clouds
3:30 PM 84.2 °F 83.5 °F 57.2 °F 40% 29.92 in 6.2 mi SE 25.3 mph - N/A   Scattered Clouds
4:00 PM 86.0 °F 84.9 °F 57.2 °F 37% 29.92 in 6.2 mi SE 24.2 mph - N/A   Unknown
5:00 PM 82.4 °F 82.0 °F 57.2 °F 42% 29.92 in 6.2 mi SE 25.3 mph - N/A   Unknown
5:30 PM 80.6 °F 80.8 °F 57.2 °F 45% 29.95 in 6.2 mi ESE 25.3 mph - N/A   Scattered Clouds
6:00 PM 70 °F - 55 °F 50%  in - SSW 11.5 mph - -  
6:00 PM 80.6 °F 80.8 °F 57.2 °F 45% 29.95 in 6.2 mi ESE 24.2 mph - N/A   Scattered Clouds
6:30 PM 78.8 °F - 57.2 °F 47% 29.98 in 6.2 mi SE 23.0 mph - N/A   Mostly Cloudy
7:00 PM 78.8 °F - 57.2 °F 47% 29.98 in 6.2 mi SE 24.2 mph - N/A   Scattered Clouds
7:30 PM 77.0 °F - 57.2 °F 50% 30.01 in 6.2 mi ESE 23.0 mph - N/A   Unknown
8:00 PM 77.0 °F - 57.2 °F 50% 30.01 in 6.2 mi SE 20.7 mph - N/A   Unknown
8:30 PM 75.2 °F - 57.2 °F 53% 30.04 in 6.2 mi SE 19.6 mph - N/A   Unknown
9:00 PM 68 °F - 59 °F 64%  in - SSW 6.9 mph - -  
9:00 PM 75.2 °F - 57.2 °F 53% 30.04 in 6.2 mi ESE 20.7 mph - N/A   Unknown
9:30 PM 75.2 °F - 57.2 °F 53% 30.06 in 6.2 mi SE 23.0 mph - N/A   Unknown
10:00 PM 73.4 °F - 55.4 °F 53% 30.06 in 6.2 mi ESE 24.2 mph - N/A   Unknown
10:30 PM 73.4 °F - 55.4 °F 53% 30.06 in 6.2 mi SE 20.7 mph - N/A   Scattered Clouds
11:00 PM 71.6 °F - 55.4 °F 57% 30.06 in 6.2 mi ESE 18.4 mph - N/A   Unknown
11:30 PM 71.6 °F - 55.4 °F 57% 30.09 in 6.2 mi SE 15.0 mph - N/A   Unknown